Terminal Aerodrome Forecast
Issued by NWS

Home | Current Version | Previous Version | Text Only | Print | Product List | Glossary On
Versions: 1 2 3 4 5 6 7 8 9 10 11 12 13 14 15 16 17 18 19 20 21 22 23 24 25 26 27 28 29 30 31 32 33 34 35 36 37 38 39 40 41 42 43 44 45 46 47 48 49 50
000
FTAK31 PAFC 150415 AAA
TAFASN
TAF AMD
PASN 150415Z 1504/1524 01030G40KT 5SM -SN BR BKN012 OVC020
      TEMPO 1504/1506 2SM -RASN BR OVC007
     FM151100 02015KT 4SM -SNRA BR OVC010
     FM152100 31017KT P6SM BKN025=

USA.gov is the U.S. government's official web portal to all federal, state and local government web resources and services.